sat.trackr.live / text

‹ back to catalog

STARLINK-34137

NORAD 63953 · 2025-099B

PAYLOAD ACTIVE UNKNOWN

§ Identity

Operator
Country
US
Launch date
2025-05-13
Launch site
AFETR
Launch vehicle
Mass (kg)
RCS (m²)

Purposes: comms

External: N2YO · Heavens-Above · Gunter

§ Orbital elements

Epoch: 2026-05-25T04:16:40.761984Z

Period
94.27 min
Inclination
42.9972°
Eccentricity
0.0000943
Mean motion
15.27593779 rev/d
Perigee alt
482.4 km
Apogee alt
483.7 km
Semi-major
6,861.1 km
B*
5.2965e-4
RAAN
104.3054°
Arg perigee
258.0721°
Mean anomaly
102.0025°
Rev number
5,903

§ Raw data

STARLINK-341371 63953U 25099B   26145.17824956  .00014347  00000+0  52965-3 0  99992 63953  42.9972 104.3054 0000943 258.0721 102.0025 15.27593779 59031

JSON: /api/v1/satellites/63953 · /tle

For live sub-satellite position, see the globe view (requires WebGL).

§ Visibility from observer

Set your observer location to see the next 7 days of passes ≥ 10°. The values pass through the URL so the page stays shareable.

No JS? Fill the form by hand. The geolocation button needs JavaScript.